"TOA5","AWS1","CR1000","7964","CR1000.Std.14","CPU:AWS1_114.CR1","64363","TBL110"
"TIMESTAMP","RECORD","Wind_spd_WVc(1)","Wind_spd_WVc(2)","Air_Temp_Avg","Humidity_Avg","SW_upper_Wm2_Avg","Rain_Tot","Press_Avg","Issui_Tot","Depth_cm","SR50A_Raw","Quality","Ground_Temp_Avg(1)","Ground_Temp_Avg(2)","SW_lower_Wm2_Avg","Albedo_Avg","SWC_per(1)","SWC_per(2)","Period(1)","Period(2)"
"TS","RN","","","","","","","","","","","","","","","","","","",""
"","","WVc","WVc","Avg","Avg","Avg","Tot","Avg","Tot","Smp","Smp","Smp","Avg","Avg","Avg","Avg","Smp","Smp","Smp","Smp"
"2015-12-09 00:00:00",212749,1.196,29.78,-2.419,57.03,0,0,874.9967,0,8.7,3.1,190,3.21,4.313,1.725419,0,51.49,59.32,33.66,35.52
"2015-12-09 00:10:00",212750,1.091,32.64,-1.175,47.15,0,0,875.0059,0,8.95,3.098,189,3.218,4.275,1.156289,0,51.49,59.32,33.66,35.52
"2015-12-09 00:20:00",212751,1.372,50.91,-0.737,40.53,0,0,874.8871,0,8.16,3.101,181,3.22,4.269,0.1971908,0,51.49,59.32,33.66,35.52
"2015-12-09 00:30:00",212752,0.512,16.59,0.158,29.9,0,0,874.7795,0,7.872,3.098,189,3.208,4.267,0.4512635,0,51.49,59.32,33.66,35.52
"2015-12-09 00:40:00",212753,0.634,304.8,-0.766,45.32,0,0,874.8513,0,8.02,3.112,189,3.191,4.256,0.01137639,0,51.49,59.32,33.66,35.52
"2015-12-09 00:50:00",212754,0.294,169.9,-3.52,64.62,0,0,874.7458,0,8.64,3.113,186,3.215,4.27,0,0,51.49,59.32,33.66,35.52
"2015-12-09 01:00:00",212755,0.011,266,-3.005,60.54,0,0,874.8849,0,8.34,3.114,190,3.214,4.269,0,0,51.49,59.32,33.66,35.52
"2015-12-09 01:10:00",212756,0.088,161.4,-3.509,58.05,0,0,874.9229,0,8.29,3.117,178,3.215,4.276,0,0,51.49,59.32,33.66,35.52
"2015-12-09 01:20:00",212757,0.415,72.4,-2.05,39.43,0,0,874.8449,0,8.26,3.1,189,3.222,4.28,0.9366562,0,51.44,59.32,33.65,35.52
"2015-12-09 01:30:00",212758,0.491,22.55,0.057,29.23,0,0,874.6721,0,8.52,3.092,190,3.218,4.27,2.495222,0,51.49,59.32,33.66,35.52
"2015-12-09 01:40:00",212759,0.561,347.6,0.783,25.21,0,0,874.6889,0,8.28,3.091,178,3.205,4.265,1.319661,0,51.49,59.32,33.66,35.52
"2015-12-09 01:50:00",212760,0.694,293.7,-0.755,43.75,0,0,874.9229,0,8.3,3.109,190,3.193,4.256,0.09859538,0,51.49,59.32,33.66,35.52
"2015-12-09 02:00:00",212761,0.273,165.8,-3.342,58.17,0,0,874.9883,0,8.51,3.116,190,3.211,4.267,0,0,51.49,59.32,33.66,35.52
"2015-12-09 02:10:00",212762,0.325,179.1,-3.297,49.83,0,0,875.1674,0,8.44,3.113,190,3.214,4.269,0,0,51.49,59.32,33.66,35.52
"2015-12-09 02:20:00",212763,0.152,179.4,-3.166,48.29,0,0,875.1779,0,7.745,3.122,190,3.218,4.27,0,0,51.49,59.32,33.66,35.52
"2015-12-09 02:30:00",212764,0.514,182.6,-3.717,50.09,0,0,875.1779,0,8.09,3.121,177,3.192,4.277,0,0,51.49,59.26,33.66,35.51
"2015-12-09 02:40:00",212765,0.421,180.3,-4.068,53.68,0,0,875.1316,0,8.54,3.119,190,3.161,4.299,0,0,51.49,59.26,33.66,35.51
"2015-12-09 02:50:00",212766,1.146,44.45,-2.374,40.29,0,0,875.1273,0,8.6,3.101,189,3.176,4.301,1.482723,0,51.49,59.26,33.66,35.51
"2015-12-09 03:00:00",212767,0.091,20.73,-1.792,40.31,0,0,875.1779,0,7.946,3.114,191,3.218,4.27,0.174438,0,51.49,59.32,33.66,35.52
"2015-12-09 03:10:00",212768,0.447,192.9,-3.386,49.3,0,0,875.1779,0,8.32,3.121,190,3.162,4.285,0,0,51.49,59.32,33.66,35.52
"2015-12-09 03:20:00",212769,0.839,47.46,-2.141,37.2,0,0,874.9567,0,8.36,3.098,190,3.156,4.303,1.422049,0,51.49,59.26,33.66,35.51
"2015-12-09 03:30:00",212770,1.069,27.41,0.255,24.52,0,0,875.0389,0,8.55,3.09,182,3.207,4.27,1.520644,0,51.49,59.32,33.66,35.52
"2015-12-09 03:40:00",212771,0.474,318.1,-0.959,43.28,0,0,875.4013,0,7.921,3.114,190,3.214,4.269,0.204775,0,51.49,59.26,33.66,35.51
"2015-12-09 03:50:00",212772,0.159,167.7,-3.263,52.38,0,0,875.4476,0,8.09,3.122,190,3.19,4.269,0,0,51.44,59.32,33.65,35.52
"2015-12-09 04:00:00",212773,0.286,164.3,-4.062,55.33,0,0,875.4287,0,8.39,3.118,189,3.157,4.275,0,0,51.44,59.32,33.65,35.52
"2015-12-09 04:10:00",212774,0.215,170,-3.615,49.5,0,0,875.6374,0,8.59,3.113,190,3.148,4.306,0,0,51.49,59.26,33.66,35.51
"2015-12-09 04:20:00",212775,0.171,161,-3.28,44.02,0,0,875.4329,0,9.93,3.101,190,3.157,4.312,0,0,51.44,59.26,33.65,35.51
"2015-12-09 04:30:00",212776,1.043,56.64,-1.36,32.87,0,0,875.4308,0,8.3,3.108,190,3.152,4.3,1.596487,0,51.49,59.26,33.66,35.51
"2015-12-09 04:40:00",212777,0.011,100.5,-2.04,36.15,0,0,875.3297,0,7.97,3.115,191,3.144,4.284,0,0,51.44,59.26,33.65,35.51
"2015-12-09 04:50:00",212778,0.502,189,-3.01,44.03,0,0,875.2559,0,8.44,3.115,190,3.147,4.308,0,0,51.44,59.32,33.65,35.52
"2015-12-09 05:00:00",212779,0.573,246,-2.525,40.88,0,0,875.4772,0,7.975,3.11,178,3.154,4.311,0.0758426,0,51.49,59.32,33.66,35.52
"2015-12-09 05:10:00",212780,0.267,190.6,-2.49,43.07,0,0,875.6563,0,8.12,3.12,186,3.15,4.307,0.01516852,0,51.44,59.32,33.65,35.52
"2015-12-09 05:20:00",212781,0.318,181.8,-3.182,42.17,0,0,875.6837,0,7.696,3.119,190,3.169,4.316,0.01516852,0,51.44,59.32,33.65,35.52
"2015-12-09 05:30:00",212782,0.219,162.3,-3.313,43.73,0,0,875.6837,0,7.994,3.117,190,3.183,4.333,0,0,51.44,59.32,33.65,35.52
"2015-12-09 05:40:00",212783,0.352,167.4,-3.503,43.68,0,0,875.6837,0,8.37,3.117,189,3.186,4.336,0,0,51.49,59.26,33.66,35.51
"2015-12-09 05:50:00",212784,0.476,191.7,-3.479,42.03,0,0,875.6985,0,8.49,3.113,185,3.186,4.329,0,0,51.44,59.32,33.65,35.52
"2015-12-09 06:00:00",212785,0.47,186.5,-2.645,38.58,0,0,875.8692,0,8.37,3.111,191,3.185,4.289,0.1289324,0,51.44,59.26,33.65,35.51
"2015-12-09 06:10:00",212786,0.231,205,-2.21,35.68,0,0,875.8292,0,8.22,3.109,190,3.185,4.339,0.1061796,0,51.44,59.32,33.65,35.52
"2015-12-09 06:20:00",212787,0.215,203.5,-2.209,35.41,0,0,875.9915,0,8.54,3.107,190,3.186,4.325,0,0,51.44,59.26,33.65,35.51
"2015-12-09 06:30:00",212788,0.35,198,-2.113,35.75,0,0,876.1221,0,8.32,3.112,187,3.186,4.331,0.04171343,0,51.44,59.32,33.65,35.52
"2015-12-09 06:40:00",212789,0.175,183.3,-2.578,37.68,0,0,876.3329,0,8.39,3.109,177,3.182,4.312,0.06825834,0,51.44,59.26,33.65,35.51
"2015-12-09 06:50:00",212790,0.265,186.8,-2.253,33.42,0,0,876.4277,0,8.19,3.113,178,3.177,4.314,1.061797,0,51.44,59.26,33.65,35.51
"2015-12-09 07:00:00",212791,0.481,175.5,-2.962,41.42,0.2831737,0,876.2802,0,8.37,3.114,191,3.185,4.335,2.787216,3.147,51.44,59.26,33.65,35.51
"2015-12-09 07:10:00",212792,0.615,189,-2.709,38.44,3.653728,0,876.2128,0,8.39,3.111,190,3.182,4.338,5.020781,1.497,51.44,59.26,33.65,35.51
"2015-12-09 07:20:00",212793,0.368,186.3,-2.121,36.69,6.918092,0,876.5668,0,8.82,3.1,186,3.181,4.328,7.375693,1.08,51.44,59.26,33.65,35.51
"2015-12-09 07:30:00",212794,0.161,277.9,-0.831,31.85,11.07524,0,876.8577,0,7.5,3.116,182,3.169,4.291,9.582713,0.868,51.44,59.2,33.65,35.5
"2015-12-09 07:40:00",212795,0.249,177.6,-2.256,39.47,12.35739,0,876.9483,0,7.846,3.116,191,3.178,4.302,10.10603,0.82,51.44,59.26,33.65,35.51
"2015-12-09 07:50:00",212796,0.334,177.9,-2.516,42.03,24.63612,0,876.9483,0,7.998,3.111,173,3.179,4.308,34.17089,1.361,51.44,59.26,33.65,35.51
"2015-12-09 08:00:00",212797,0.295,177,-1.687,41.14,29.75684,0,877.0031,0,8.38,3.103,190,3.145,4.273,45.5359,1.535,51.44,59.26,33.65,35.51
"2015-12-09 08:10:00",212798,0.565,188.7,-1.077,41.74,31.27103,0,877.1928,0,8.43,3.102,190,3.143,4.264,51.06104,1.633,51.44,59.26,33.65,35.51
"2015-12-09 08:20:00",212799,0.505,184.4,-0.814,40.26,33.70948,0,877.2076,0,8.23,3.101,190,3.178,4.231,57.44698,1.705,51.49,59.2,33.66,35.5
"2015-12-09 08:30:00",212800,0.757,180.4,-0.236,39.44,34.90903,0,877.1949,0,8.47,3.095,190,3.161,4.226,64.45484,1.846,51.44,59.2,33.65,35.5
"2015-12-09 08:40:00",212801,0.175,147.7,0.412,41.65,42.02377,0,877.2012,0,8.17,3.094,190,3.145,4.23,69.88516,1.707,51.44,59.26,33.65,35.51
"2015-12-09 08:50:00",212802,0.087,179.5,1.411,46.5,68.35469,0,877.2054,0,8.14,3.088,178,3.144,4.269,68.86112,1.253,51.44,59.26,33.65,35.51
"2015-12-09 09:00:00",212803,0.056,185.4,2.056,36.67,59.30377,0,877.4052,0,7.997,3.089,178,3.129,4.29,65.13565,1.303,51.44,59.26,33.65,35.51
"2015-12-09 09:10:00",212804,0.098,168.9,1.897,41.77,40.56878,0,877.57,0,8.15,3.086,190,3.156,4.274,62.22697,1.534,51.44,59.26,33.65,35.51
"2015-12-09 09:20:00",212805,0.226,148.9,2.556,39.43,59.24146,0,877.632,0,8.09,3.084,185,3.069,4.193,63.35704,1.154,51.44,59.26,33.65,35.51
"2015-12-09 09:30:00",212806,0.649,143.2,2.937,35.74,53.05233,0,877.6168,0,8.54,3.076,186,3.045,4.216,66.24851,1.306,51.44,59.26,33.65,35.51
"2015-12-09 09:40:00",212807,0.518,146.7,3.979,26.83,115.6081,0,877.613,0,8.14,3.074,189,3.087,4.229,71.37905,0.868,51.44,59.26,33.65,35.51
"2015-12-09 09:50:00",212808,0.305,170.1,4.183,27.98,138.1543,0,877.6121,0,7.736,3.079,189,3.092,4.224,75.46845,0.775,51.44,59.26,33.65,35.51
"2015-12-09 10:00:00",212809,0.354,356.3,4.128,23.8,52.95912,0,877.6119,0,8.31,3.075,190,3.06,4.201,81.10512,1.549,51.44,59.26,33.65,35.51
"2015-12-09 10:10:00",212810,0.284,330.6,3.787,28.41,61.55754,0,877.6118,0,8.05,3.079,191,3.057,4.188,86.07481,1.505,51.38,59.26,33.64,35.51
"2015-12-09 10:20:00",212811,0.72,324,3.807,28.73,47.65921,0,877.6118,0,8.31,3.075,190,3.059,4.196,94.39946,1.983,51.38,59.2,33.64,35.5
"2015-12-09 10:30:00",212812,0.612,318.7,3.82,27.24,106.5196,0,877.6073,0,8.38,3.075,189,3.069,4.205,105.7037,1.116,51.44,59.26,33.65,35.51
"2015-12-09 10:40:00",212813,0.695,320.7,3.924,28.41,219.8485,0,877.5848,0,8.14,3.076,190,3.067,4.197,116.3405,0.791,51.38,59.26,33.64,35.51
"2015-12-09 10:50:00",212814,0.662,327.9,4.12,28.71,219.1969,0,877.4227,0,8.52,3.071,190,3.078,4.202,139.0545,0.742,51.38,59.26,33.64,35.51
"2015-12-09 11:00:00",212815,0.372,327.7,4.337,29.07,123.0291,0,877.2742,0,7.557,3.079,185,3.062,4.188,174.7705,1.838,51.44,59.26,33.65,35.51
"2015-12-09 11:10:00",212816,0.493,320,4.451,28.62,188.1926,0,877.0915,0,8.36,3.071,190,3.004,4.151,203.2302,1.224,51.44,59.2,33.65,35.5
"2015-12-09 11:20:00",212817,0.629,324.6,4.595,27.4,369.6064,0,877.0117,0,8.15,3.072,189,3.063,4.2,204.5553,0.563,51.44,59.26,33.65,35.51
"2015-12-09 11:30:00",212818,0.455,319.8,4.887,26.89,587.5217,0,877.0007,0,7.83,3.074,190,3.103,4.227,205.2089,0.35,51.49,59.26,33.66,35.51
"2015-12-09 11:40:00",212819,0.533,335.1,4.938,27.41,294.2487,0,876.9739,0,8.09,3.072,186,3.087,4.202,205.4006,0.745,51.44,59.26,33.65,35.51
"2015-12-09 11:50:00",212820,0.631,320.3,4.691,32.76,88.05224,0,876.9393,0,7.786,3.076,190,3.012,4.199,208.6098,2.593,51.44,59.26,33.65,35.51
"2015-12-09 12:00:00",212821,0.366,323.7,4.55,36.65,115.6253,0,876.7191,0,8.1,3.074,191,2.984,4.17,201.311,2.154,51.38,59.26,33.64,35.51
"2015-12-09 12:10:00",212822,0.493,302.9,4.333,40.08,504.8696,0,876.659,0,7.887,3.076,177,3.006,4.147,185.9439,0.37,51.44,59.2,33.65,35.5
"2015-12-09 12:20:00",212823,0.34,289.6,4.471,41.18,550.2471,0,876.6906,0,7.579,3.079,187,2.963,4.102,177.0786,0.324,51.38,59.2,33.64,35.5
"2015-12-09 12:30:00",212824,0.334,313.5,4.509,40.21,318.143,0,876.636,0,7.894,3.076,190,2.929,4.083,155.7723,0.498,51.38,59.2,33.64,35.5
"2015-12-09 12:40:00",212825,0.349,289.1,4.384,43.23,271.0465,0,876.6147,0,8.35,3.072,190,2.907,4.08,129.5285,0.491,51.38,59.2,33.64,35.5
"2015-12-09 12:50:00",212826,0.299,332.4,4.541,41.67,354.8774,0,876.5773,0,8.36,3.07,191,2.881,4.073,93.14095,0.273,51.44,59.2,33.65,35.5
"2015-12-09 13:00:00",212827,0.263,328.9,5.043,37.99,204.8604,0,876.4316,0,8.31,3.07,191,2.878,4.088,89.72459,0.474,51.44,59.2,33.65,35.5
"2015-12-09 13:10:00",212828,0.426,302.1,4.789,40.52,178.4901,0,876.3157,0,8.31,3.07,187,2.898,4.064,114.0292,0.641,51.38,59.2,33.64,35.5
"2015-12-09 13:20:00",212829,0.338,311.2,4.992,39.26,204.4978,0,876.3251,0,8.08,3.071,190,2.92,4.047,106.6764,0.522,51.38,59.2,33.64,35.5
"2015-12-09 13:30:00",212830,0.306,328.9,5.065,37.96,217.7835,0,876.3552,0,8,3.071,177,2.939,4.062,113.8033,0.526,51.44,59.2,33.65,35.5
"2015-12-09 13:40:00",212831,0.274,351.8,5.402,36.3,201.73,0,876.3859,0,8.02,3.07,190,2.954,4.078,103.1218,0.512,51.44,59.2,33.65,35.5
"2015-12-09 13:50:00",212832,0.171,315,5.305,37.36,151.3818,0,876.1707,0,8.07,3.07,192,2.966,4.089,79.90804,0.529,51.38,59.14,33.64,35.48
"2015-12-09 14:00:00",212833,0.101,3.412,5.278,37.9,146.3726,0,876.1696,0,7.806,3.072,191,2.978,4.102,71.58623,0.493,51.38,59.2,33.64,35.5
"2015-12-09 14:10:00",212834,0.047,324.3,5.29,38.27,122.1133,0,876.1577,0,7.992,3.072,192,2.995,4.118,59.36655,0.495,51.38,59.2,33.64,35.5
"2015-12-09 14:20:00",212835,0.061,320.8,5.052,38.85,123.2804,0,876.1578,0,7.783,3.075,178,3.001,4.127,67.21761,0.545,51.38,59.14,33.64,35.48
"2015-12-09 14:30:00",212836,0.087,30.61,5.266,36.55,144.2622,0,876.1094,0,7.598,3.073,181,2.999,4.125,79.80663,0.553,51.38,59.2,33.64,35.5
"2015-12-09 14:40:00",212837,0.075,280,5.483,35.33,111.2872,0,875.9725,0,7.824,3.071,182,3.004,4.122,61.18013,0.55,51.38,59.2,33.64,35.5
"2015-12-09 14:50:00",212838,0.149,313.7,4.984,40.71,90.65248,0,876.1852,0,7.724,3.077,177,2.959,4.046,49.43285,0.545,51.38,59.2,33.64,35.5
"2015-12-09 15:00:00",212839,0.094,306.2,4.608,44.6,87.25003,0,876.3207,0,7.696,3.078,190,2.893,4.018,47.89483,0.549,51.38,59.14,33.64,35.48
"2015-12-09 15:10:00",212840,0.108,312.4,4.484,42.14,84.79051,0,876.4195,0,8.18,3.073,191,2.899,4.045,46.65228,0.55,51.38,59.2,33.64,35.5
"2015-12-09 15:20:00",212841,0.062,297.3,4.4,44.03,67.50317,0,876.4279,0,7.869,3.077,173,2.914,4.044,37.20439,0.551,51.38,59.2,33.64,35.5
"2015-12-09 15:30:00",212842,0.063,274.3,4.27,44.4,59.31918,0,876.6698,0,7.66,3.081,174,2.92,4.044,33.16991,0.559,51.44,59.2,33.65,35.5
"2015-12-09 15:40:00",212843,0.057,300.4,4.085,43.98,60.80559,0,876.8595,0,8.01,3.077,182,2.926,4.05,34.24648,0.563,51.44,59.14,33.65,35.48
"2015-12-09 15:50:00",212844,0.009,285.5,4.216,44.3,60.90789,0,877.018,0,7.889,3.078,190,2.945,4.069,34.23362,0.562,51.38,59.2,33.64,35.5
"2015-12-09 16:00:00",212845,0.039,300.3,3.932,46.79,34.25184,0,877.2416,0,7.714,3.082,170,2.976,4.1,19.46052,0.569,51.38,59.2,33.64,35.5
"2015-12-09 16:10:00",212846,0.047,302.3,3.559,48.77,15.6888,0,877.0146,0,7.322,3.088,169,2.995,4.122,9.568054,0.628,51.38,59.2,33.64,35.5
"2015-12-09 16:20:00",212847,0.134,168.3,2.841,56.26,3.183468,0,876.9324,0,7.534,3.089,179,2.994,4.12,2.986103,1.002,51.38,59.2,33.64,35.5
"2015-12-09 16:30:00",212848,0.336,169.6,2.109,61.75,0.5187936,0,876.9561,0,7.661,3.095,170,3.007,4.132,1.390754,1.447,51.33,59.2,33.62,35.5
"2015-12-09 16:40:00",212849,0.313,173.4,1.381,64.52,0,0,876.6761,0,7.71,3.095,174,2.99,4.119,0.3145314,0,51.38,59.2,33.64,35.5
"2015-12-09 16:50:00",212850,0.466,183.5,1.36,62.1,0,0,876.5244,0,7.659,3.096,173,2.926,4.06,0.01136862,0,51.38,59.2,33.64,35.5
"2015-12-09 17:00:00",212851,0.56,193.6,0.795,64.2,0,0,876.5055,0,7.9,3.097,170,2.945,4.078,0,0,51.38,59.14,33.64,35.48
"2015-12-09 17:10:00",212852,0.303,209,1.332,56.78,0,0,876.5055,0,7.011,3.101,170,2.966,4.115,0.03410587,0,51.33,59.2,33.62,35.5
"2015-12-09 17:20:00",212853,0.117,178.6,0.89,57.04,0,0,876.5034,0,7.422,3.103,169,2.979,4.132,0,0,51.33,59.2,33.62,35.5
"2015-12-09 17:30:00",212854,0.263,180.8,0.423,57.38,0,0,876.2907,0,7.951,3.095,189,3.007,4.083,0,0,51.38,59.2,33.64,35.5
"2015-12-09 17:40:00",212855,0.471,174.7,0.452,55.61,0,0,876.236,0,7.82,3.101,178,3.032,4.072,0,0,51.33,59.14,33.62,35.48
"2015-12-09 17:50:00",212856,0.584,183.3,0.183,55.74,0,0,876.1201,0,7.955,3.098,187,3.068,4.107,0,0,51.38,59.14,33.64,35.48
"2015-12-09 18:00:00",212857,0.116,179.8,0.415,51.06,0,0,876.5023,0,7.4,3.103,177,3.084,4.126,0,0,51.33,59.2,33.62,35.5
"2015-12-09 18:10:00",212858,0.15,180.6,0.6,48.89,0,0,876.3948,0,7.344,3.105,182,3.077,4.138,0,0,51.33,59.14,33.62,35.48
"2015-12-09 18:20:00",212859,0.287,186.9,0.17,46.29,0,0,876.5944,0,7.642,3.103,177,3.099,4.156,0,0,51.38,59.2,33.64,35.5
"2015-12-09 18:30:00",212860,0.479,192.8,0.265,44.6,0,0,876.6,0,7.848,3.098,178,3.115,4.157,0,0,51.33,59.14,33.62,35.48
"2015-12-09 18:40:00",212861,0.104,201.1,1.123,43.81,0,0,876.7267,0,6.955,3.103,169,3.117,4.167,0.1554243,0,51.33,59.14,33.62,35.48
"2015-12-09 18:50:00",212862,0.304,194.3,0.796,44.64,0,0,876.8511,0,7.852,3.096,178,3.08,4.168,0.007581673,0,51.33,59.14,33.62,35.48
"2015-12-09 19:00:00",212863,0.228,177.4,0.987,44.36,0,0,876.967,0,7.549,3.1,186,3.077,4.17,0.208496,0,51.33,59.14,33.62,35.48
"2015-12-09 19:10:00",212864,0.431,178.6,0.779,46.21,0,0,877.1166,0,7.497,3.102,177,3.104,4.124,0,0,51.33,59.14,33.62,35.48
"2015-12-09 19:20:00",212865,0.438,177.4,0.592,45.03,0,0,877.0976,0,7.75,3.098,192,3.068,4.156,0,0,51.33,59.14,33.62,35.48
"2015-12-09 19:30:00",212866,0.159,172.7,1.132,38.65,0,0,877.1124,0,8.06,3.09,173,3.054,4.142,0.01137251,0,51.33,59.14,33.62,35.48
"2015-12-09 19:40:00",212867,0.244,282.6,2.519,32.22,0,0,877.2598,0,7.479,3.09,173,3.059,4.15,0.6406513,0,51.33,59.14,33.62,35.48
"2015-12-09 19:50:00",212868,0.353,189.5,1.384,42.06,0,0,877.3588,0,7.495,3.103,178,3.06,4.16,0.01137251,0,51.33,59.14,33.62,35.48
"2015-12-09 20:00:00",212869,0.573,189.4,0.297,45.79,0,0,877.4432,0,8.04,3.098,173,3.054,4.129,0,0,51.33,59.14,33.62,35.48
"2015-12-09 20:10:00",212870,0.257,212.4,0.796,41.6,0,0,877.4368,0,7.806,3.095,168,3.054,4.112,0,0,51.33,59.14,33.62,35.48
"2015-12-09 20:20:00",212871,0.13,195.9,0.878,46.38,0,0,877.4789,0,7.764,3.103,181,3.056,4.127,0,0,51.33,59.14,33.62,35.48
"2015-12-09 20:30:00",212872,0.209,174.7,-0.229,47.34,0,0,877.5021,0,7.762,3.104,172,3.05,4.135,0,0,51.33,59.14,33.62,35.48
"2015-12-09 20:40:00",212873,0.126,196.8,-0.087,46.28,0,0,878.0079,0,7.889,3.101,182,3.046,4.136,0,0,51.33,59.14,33.62,35.48
"2015-12-09 20:50:00",212874,0.037,188.2,0.108,46.46,0,0,878.2839,0,7.456,3.105,170,3.058,4.146,0,0,51.33,59.14,33.62,35.48
"2015-12-09 21:00:00",212875,0.223,184.1,-0.092,50.1,0,0,878.366,0,7.572,3.105,173,3.056,4.162,0,0,51.33,59.14,33.62,35.48
"2015-12-09 21:10:00",212876,0.258,286.4,0.202,55.66,0,0,878.4343,0,7.501,3.101,179,3.06,4.172,0.1061584,0,51.33,59.14,33.62,35.48
"2015-12-09 21:20:00",212877,0.163,264.3,0.606,61.72,0,0,878.6334,0,6.968,3.109,178,3.067,4.177,0.1478649,0,51.33,59.14,33.62,35.48
"2015-12-09 21:30:00",212878,0.095,195.1,-0.306,62.69,0,0,878.4551,0,7.687,3.105,181,3.084,4.189,0,0,51.33,59.14,33.62,35.48
"2015-12-09 21:40:00",212879,0.172,2.337,-0.133,66.23,0,0,878.2281,0,7.388,3.106,190,3.066,4.207,0.02274898,0,51.33,59.14,33.62,35.48
"2015-12-09 21:50:00",212880,0.274,24.98,0.448,69.09,0,0,878.0928,0,7.663,3.1,173,3.058,4.205,0.3033273,0,51.33,59.14,33.62,35.48
"2015-12-09 22:00:00",212881,0.094,193.4,0.293,70.07,0,0,877.9091,0,7.07,3.111,170,3.075,4.213,0.03033358,0,51.33,59.14,33.62,35.48
"2015-12-09 22:10:00",212882,0.423,301,-0.25,73.96,0,0,877.9289,0,7.599,3.104,181,3.088,4.221,0,0,51.33,59.14,33.62,35.48
"2015-12-09 22:20:00",212883,0.118,277.7,-0.245,75.6,0,0,878.0842,0,7.793,3.104,186,3.084,4.237,0,0,51.33,59.14,33.62,35.48
"2015-12-09 22:30:00",212884,0.039,341.2,-0.36,76.03,0,0,878.1132,0,7.036,3.116,187,3.097,4.201,0,0,51.33,59.14,33.62,35.48
"2015-12-09 22:40:00",212885,0.074,187.4,-1.018,78.43,0,0,877.9372,0,7.361,3.111,174,3.096,4.176,0,0,51.27,59.14,33.61,35.48
"2015-12-09 22:50:00",212886,0.341,177,-1.446,78.66,0,0,877.8712,0,7.627,3.114,182,3.096,4.18,0,0,51.33,59.14,33.62,35.48
"2015-12-09 23:00:00",212887,0.401,187.2,-1.709,77.84,0,0,877.8815,0,7.578,3.112,177,3.099,4.18,0,0,51.33,59.14,33.62,35.48
"2015-12-09 23:10:00",212888,0.09,202,-1.299,76.25,0,0,877.7766,0,7.504,3.112,170,3.1,4.185,0,0,51.33,59.14,33.62,35.48
"2015-12-09 23:20:00",212889,0,0,-1.353,77.31,0,0,877.96,0,7.478,3.113,170,3.101,4.184,0,0,51.33,59.08,33.62,35.47
"2015-12-09 23:30:00",212890,0.177,198.8,-1.568,79.38,0,0,877.9671,0,7.525,3.115,174,3.1,4.182,0,0,51.27,59.08,33.61,35.47
"2015-12-09 23:40:00",212891,0.045,195,-1.853,81.1,0,0,877.9437,0,7.977,3.108,170,3.083,4.183,0.02654491,0,51.33,59.08,33.62,35.47
"2015-12-09 23:50:00",212892,0.046,251.5,-0.789,79.04,0,0,877.9387,0,7.129,3.116,170,3.077,4.183,0.4702242,0,51.33,59.08,33.62,35.47
